Regional Weather Roundup
Issued by NWS

Home | Current Version | Previous Version | Text Only | Print | Product List | Glossary Off
Versions: 1 2 3 4 5 6 7 8 9 10 11 12 13 14 15 16 17 18 19 20 21 22 23 24 25 26 27 28 29 30 31 32 33 34 35 36 37 38 39 40 41 42 43 44 45 46 47 48 49 50

000
ASUS45 KSLC 290610
RWRUT

UTAH REGIONAL WEATHER ROUNDUP
NATIONAL WEATHER SERVICE SALT LAKE CITY UT
1200 AM MDT TUE JUL 29 2014

UTZ001>011-023>025-290700-

NORTHERN UTAH

CITY           SKY/WX    TMP DP  RH WIND       PRES   REMARKS
HILL AFB       CLOUDY    66  57  72 E8        30.27F
LOGAN          CLEAR     67  59  75 NE3       30.26F
OGDEN          LGT RAIN  68  58  70 S6        30.25F
PROVO AIRPORT  CLOUDY    70  63  78 CALM      30.25S
SALT LAKE CITY CLOUDY    69  62  78 N14       30.23F
VERNAL         CLOUDY    66  58  75 S6        30.28F
WENDOVER       CLOUDY    73  59  60 NE10      30.21S
HEBER CITY     CLOUDY    63  59  88 CALM      30.31F
WEST JORDAN    CLOUDY    70  66  88 N6        30.26F

$$

UTZ012>022-026-027-290700-

SOUTHERN UTAH

CITY           SKY/WX    TMP DP  RH WIND       PRES   REMARKS
BRYCE CANYON   MOCLDY    56  53  90 CALM      30.44F
CEDAR CITY     MOCLDY    65  57  75 SE5       30.28F
MILFORD        MOCLDY    74  53  48 SW10      30.22S
MOAB/CYNLANDS  LGT RAIN  64  62  93 NE8       30.26F
PRICE          CLOUDY    68  56  65 CALM      30.31S
ST GEORGE      CLOUDY    81  57  44 SE8       30.12R
KANAB            N/A     64  59  82 CALM      30.30S

$$

REGIONAL REPORTS     COLORADO/ARIZONA

CITY           SKY/WX    TMP DP  RH WIND       PRES   REMARKS
CRAIG, CO      CLOUDY    57  56  96 CALM      30.35R
GRAND JUNCTION CLOUDY    70  57  63 E16       30.26R
RIFLE          CLOUDY    65  58  78 S3        30.32S
MONTROSE       LGT RAIN  61  58  90 SE14      30.39F
CORTEZ         CLOUDY    63  61  93 SW6       30.36S
PAGE, AZ       MOCLDY    80  50  34 CALM      30.20F
GRAND CANYON   MOCLDY    58  52  80 CALM      30.40S
KINGMAN        PTCLDY    74  61  63 SE13      30.13F
FLAGSTAFF      PTCLDY    60  53  77 SW3       30.43S

$$

REGIONAL REPORTS    NEVADA/IDAHO/WYOMING

CITY           SKY/WX    TMP DP  RH WIND       PRES   REMARKS
LAS VEGAS, NV  MOCLDY    83  63  50 S10       30.01F
ELY            CLOUDY    62  54  74 CALM      30.34F
ELKO           CLOUDY    69  52  54 CALM      30.25S
POCATELLO, ID  CLOUDY    65  61  87 SE8       30.26F
BURLEY         CLOUDY    72  57  59 SE16      30.18F
EVANSTON, WY   CLOUDY    58  54  86 NW7       30.38F
ROCK SPRINGS   CLOUDY    68  45  43 W9        30.33F

$$



USA.gov is the U.S. government's official web portal to all federal, state and local government web resources and services.